Weather in Mazar-I-Sharif

Afghanistan     36°43′03″N   67°06′53″E
temp.,
°C
wind,
m/s
gust,
m/s
humid.,
%
clouds,
%
prec.,
mm/h
press.,
hPa
HPBL,
m
27 january, thu
thu2701:30+5ne46440 0.0 102383
04:30+4ene46430 0.0 102277
07:30+3ene45460 0.0 102364
10:30+8ene66320 0.0 1022363
13:30+12ene88245 0.0 1019643
16:30+10ene912271 0.0 1017365
19:30+8ene7103197 0.0 1017175
22:30+8ne81231100 0.0 1015215
28 january, fri
fri2801:30+7ne71132100 0.0 1013213
04:30+7se3537100 0.0 101490
07:30+7ene595153 0.8 1013167
10:30+10ene884081 0.8 1015317
13:30+14ne663768 0.0 1013419
16:30+12ne684372 0.1 1015293
19:30+10ne3567100 0.4 1017145
22:30+9wnw347280 1.2 1021181
29 january, sat
sat2901:30+7w5687100 1.1 1023488
04:30+8w5879100 1.8 1025782
07:30+6wsw71070100 0.1 1028445
10:30+8wsw66475 0.1 1030721
13:30+10w444138 0.0 1027891
16:30+10nne22410 0.0 1026740
19:30+8ne36674 0.0 1026125
22:30+7ene58755 0.0 1025167
30 january, sun
sun3001:30+6ene57755 0.0 1023143
04:30+5ene34792 0.0 102153
07:30+4ene238082 0.0 102140
10:30+9ene3359100 0.0 1020369
13:30+12ene4446100 0.0 1017796
16:30+11ne3351100 0.0 1017342
19:30+9w335972 0.0 102029
22:30+9wsw476299 0.0 1021134
31 january, mon
mon3101:30+9ssw3462100 0.0 102162
04:30+7wnw226945 0.0 102012
07:30+6ene34725 0.0 102147
10:30+11ene67503 0.0 1019690
13:30+13ene77430 0.0 10171123
16:30+12ene67450 0.0 1016689
19:30+9ene34570 0.0 101747
22:30+8ene22610 0.0 101826